TimePST,TemperatureF,Dew PointF,Humidity,Sea Level PressureIn,VisibilityMPH,Wind Direction,Wind SpeedMPH,Gust SpeedMPH,PrecipitationIn,Events,Conditions,WindDirDegrees,DateUTC
12:11 AM,46.4,46.4,100,29.86,9.0,SSW,12.7,-,N/A,Rain,Light Rain,200,2012-01-30 08:11:00
12:29 AM,46.4,46.4,100,29.86,10.0,SSW,15.0,-,N/A,Rain,Light Rain,210,2012-01-30 08:29:00
12:30 AM,46.4,46.4,100,29.86,10.0,SSW,13.8,-,N/A,Rain,Light Rain,210,2012-01-30 08:30:00
12:33 AM,46.4,46.4,100,29.87,10.0,SSW,13.8,-,N/A,Rain,Light Rain,210,2012-01-30 08:33:00
12:43 AM,46.4,46.4,100,29.87,10.0,SSW,13.8,-,N/A,Rain,Light Rain,200,2012-01-30 08:43:00
12:47 AM,46.4,46.4,100,29.87,10.0,SSW,12.7,-,N/A,,Overcast,200,2012-01-30 08:47:00
12:55 AM,46.2,46.0,99,29.88,10.0,SSW,12.7,20.7,0.03,,Overcast,210,2012-01-30 08:55:00
1:04 AM,46.4,46.4,100,29.88,10.0,SSW,13.8,-,N/A,,Overcast,200,2012-01-30 09:04:00
1:06 AM,46.4,46.4,100,29.88,10.0,SSW,13.8,-,N/A,,Overcast,210,2012-01-30 09:06:00
1:11 AM,46.4,46.4,100,29.88,10.0,SSW,11.5,-,N/A,,Overcast,200,2012-01-30 09:11:00
1:14 AM,46.4,46.4,100,29.88,10.0,SSW,11.5,-,N/A,,Overcast,200,2012-01-30 09:14:00
1:41 AM,46.4,46.4,100,29.90,10.0,SSW,11.5,-,N/A,,Overcast,210,2012-01-30 09:41:00
1:55 AM,45.9,45.3,98,29.91,10.0,SSW,13.8,-,N/A,,Overcast,210,2012-01-30 09:55:00
2:55 AM,45.5,44.4,96,29.94,10.0,SSW,17.3,23.0,N/A,,Mostly Cloudy,210,2012-01-30 10:55:00
3:15 AM,44.6,44.6,100,29.96,10.0,SSW,15.0,-,N/A,,Mostly Cloudy,210,2012-01-30 11:15:00
3:18 AM,44.6,44.6,100,29.95,10.0,SW,16.1,-,N/A,,Mostly Cloudy,220,2012-01-30 11:18:00
3:55 AM,44.6,43.3,95,29.97,10.0,SSW,16.1,-,N/A,,Partly Cloudy,210,2012-01-30 11:55:00
4:19 AM,44.6,42.8,93,29.98,10.0,SSW,16.1,-,N/A,,Mostly Cloudy,210,2012-01-30 12:19:00
4:55 AM,43.7,41.7,93,30.00,10.0,SSW,12.7,-,N/A,,Mostly Cloudy,200,2012-01-30 12:55:00
5:02 AM,42.8,41.0,93,30.01,10.0,SSW,11.5,-,N/A,,Mostly Cloudy,200,2012-01-30 13:02:00
5:12 AM,42.8,41.0,93,30.01,10.0,SSW,11.5,-,N/A,,Mostly Cloudy,200,2012-01-30 13:12:00
5:23 AM,42.8,41.0,93,30.02,10.0,SSW,12.7,-,N/A,,Scattered Clouds,200,2012-01-30 13:23:00
5:34 AM,42.8,41.0,93,30.03,10.0,South,15.0,-,N/A,,Mostly Cloudy,190,2012-01-30 13:34:00
5:47 AM,42.8,42.8,100,30.04,10.0,SSW,12.7,-,N/A,,Mostly Cloudy,210,2012-01-30 13:47:00
5:48 AM,42.8,42.8,100,30.04,10.0,SSW,11.5,-,N/A,,Mostly Cloudy,200,2012-01-30 13:48:00
5:52 AM,42.8,42.8,100,30.04,10.0,SSW,12.7,-,N/A,,Mostly Cloudy,210,2012-01-30 13:52:00
5:55 AM,43.3,42.3,96,30.04,9.0,SSW,12.7,-,N/A,,Overcast,210,2012-01-30 13:55:00
5:56 AM,42.8,42.8,100,30.04,9.0,SSW,12.7,-,N/A,,Overcast,210,2012-01-30 13:56:00
6:01 AM,42.8,42.8,100,30.04,9.0,SSW,11.5,-,N/A,,Overcast,210,2012-01-30 14:01:00
6:19 AM,42.8,41.0,93,30.05,10.0,South,11.5,-,N/A,,Mostly Cloudy,190,2012-01-30 14:19:00
6:26 AM,42.8,41.0,93,30.06,10.0,South,10.4,-,N/A,,Scattered Clouds,180,2012-01-30 14:26:00
6:55 AM,40.6,40.3,99,30.07,10.0,South,12.7,-,N/A,,Scattered Clouds,190,2012-01-30 14:55:00
7:10 AM,41.0,41.0,100,30.08,10.0,South,10.4,-,N/A,,Mostly Cloudy,190,2012-01-30 15:10:00
7:28 AM,41.0,41.0,100,30.08,10.0,South,10.4,-,N/A,,Overcast,180,2012-01-30 15:28:00
7:51 AM,42.8,41.0,93,30.08,10.0,SSW,11.5,-,N/A,,Mostly Cloudy,200,2012-01-30 15:51:00
7:55 AM,42.4,41.7,97,30.08,10.0,SSW,12.7,-,N/A,,Mostly Cloudy,210,2012-01-30 15:55:00
7:56 AM,42.8,41.0,93,30.08,10.0,SSW,11.5,-,N/A,,Mostly Cloudy,210,2012-01-30 15:56:00
8:10 AM,42.8,41.0,93,30.09,10.0,SSW,11.5,-,N/A,,Mostly Cloudy,210,2012-01-30 16:10:00
8:15 AM,42.8,41.0,93,30.09,10.0,SSW,10.4,-,N/A,,Scattered Clouds,210,2012-01-30 16:15:00
8:55 AM,44.1,42.1,93,30.10,10.0,South,9.2,-,N/A,,Scattered Clouds,190,2012-01-30 16:55:00
9:03 AM,44.6,42.8,93,30.10,10.0,South,9.2,-,N/A,,Mostly Cloudy,190,2012-01-30 17:03:00
9:22 AM,44.6,42.8,93,30.10,10.0,SSW,16.1,-,N/A,,Mostly Cloudy,200,2012-01-30 17:22:00
9:55 AM,44.6,42.4,92,30.10,10.0,South,9.2,-,N/A,,Scattered Clouds,190,2012-01-30 17:55:00
10:21 AM,44.6,42.8,93,30.10,10.0,South,9.2,-,N/A,,Mostly Cloudy,190,2012-01-30 18:21:00
10:23 AM,44.6,42.8,93,30.10,10.0,SSW,8.1,-,N/A,,Mostly Cloudy,200,2012-01-30 18:23:00
10:25 AM,46.4,42.8,87,30.10,10.0,SSW,8.1,-,N/A,,Mostly Cloudy,210,2012-01-30 18:25:00
10:55 AM,46.2,42.3,86,30.09,10.0,SW,12.7,-,N/A,,Overcast,220,2012-01-30 18:55:00
11:15 AM,46.4,41.0,81,30.09,10.0,SW,9.2,-,N/A,,Overcast,220,2012-01-30 19:15:00
11:55 AM,47.1,40.8,79,30.09,10.0,SW,13.8,-,N/A,,Overcast,230,2012-01-30 19:55:00
12:55 PM,46.9,41.7,82,30.09,10.0,SSW,9.2,-,N/A,,Overcast,200,2012-01-30 20:55:00
1:06 PM,46.4,41.0,81,30.08,10.0,SSW,10.4,-,N/A,,Overcast,200,2012-01-30 21:06:00
1:07 PM,46.4,41.0,81,30.08,10.0,SSW,10.4,-,N/A,,Overcast,210,2012-01-30 21:07:00
1:08 PM,46.4,41.0,81,30.08,10.0,SSW,10.4,-,N/A,,Overcast,210,2012-01-30 21:08:00
1:30 PM,46.4,41.0,81,30.08,10.0,SSW,11.5,-,N/A,,Overcast,210,2012-01-30 21:30:00
1:45 PM,48.2,41.0,76,30.08,10.0,SSW,11.5,-,N/A,,Overcast,210,2012-01-30 21:45:00
1:55 PM,47.5,41.7,80,30.07,10.0,SSW,10.4,-,N/A,,Overcast,200,2012-01-30 21:55:00
2:38 PM,48.2,42.8,82,30.08,10.0,SW,8.1,-,N/A,,Overcast,220,2012-01-30 22:38:00
2:55 PM,47.5,41.9,81,30.08,10.0,SSW,9.2,-,N/A,,Overcast,210,2012-01-30 22:55:00
3:06 PM,48.2,41.0,76,30.08,10.0,SSW,10.4,-,N/A,,Overcast,200,2012-01-30 23:06:00
3:55 PM,46.9,41.2,80,30.08,10.0,SW,6.9,-,N/A,,Overcast,220,2012-01-30 23:55:00
4:10 PM,46.4,41.0,81,30.08,10.0,SSW,5.8,-,N/A,,Overcast,210,2012-01-31 00:10:00
4:12 PM,46.4,41.0,81,30.08,10.0,SW,6.9,-,N/A,,Overcast,220,2012-01-31 00:12:00
4:13 PM,46.4,41.0,81,30.08,10.0,SW,5.8,-,N/A,,Overcast,220,2012-01-31 00:13:00
4:15 PM,46.4,41.0,81,30.08,10.0,SSW,4.6,-,N/A,,Overcast,210,2012-01-31 00:15:00
4:19 PM,46.4,41.0,81,30.08,10.0,SW,6.9,-,N/A,,Overcast,220,2012-01-31 00:19:00
4:35 PM,46.4,41.0,81,30.08,10.0,SSW,6.9,-,N/A,,Overcast,210,2012-01-31 00:35:00
4:37 PM,46.4,41.0,81,30.08,10.0,SSW,5.8,-,N/A,,Overcast,210,2012-01-31 00:37:00
4:39 PM,46.4,41.0,81,30.08,10.0,SW,6.9,-,N/A,,Overcast,220,2012-01-31 00:39:00
4:55 PM,46.6,41.7,83,30.08,10.0,SSW,4.6,-,N/A,,Overcast,210,2012-01-31 00:55:00
5:32 PM,46.4,41.0,81,30.08,10.0,SW,6.9,-,N/A,Rain,Light Rain,230,2012-01-31 01:32:00
5:36 PM,46.4,42.8,87,30.08,10.0,SW,8.1,-,N/A,Rain,Light Rain,220,2012-01-31 01:36:00
5:39 PM,46.4,42.8,87,30.08,9.0,SW,8.1,-,N/A,Rain,Light Rain,220,2012-01-31 01:39:00
5:55 PM,45.1,42.4,90,30.08,10.0,SSW,6.9,-,0.01,Rain,Light Rain,210,2012-01-31 01:55:00
5:57 PM,44.6,42.8,93,30.08,10.0,SSW,8.1,-,N/A,,Overcast,210,2012-01-31 01:57:00
6:55 PM,45.0,41.0,86,30.07,10.0,SSW,5.8,-,0.00,,Overcast,210,2012-01-31 02:55:00
7:18 PM,44.6,41.0,87,30.08,10.0,SSW,4.6,-,N/A,Rain,Light Rain,200,2012-01-31 03:18:00
7:46 PM,44.6,42.8,93,30.07,10.0,SW,5.8,-,N/A,,Overcast,220,2012-01-31 03:46:00
7:55 PM,43.9,42.3,94,30.07,10.0,SW,5.8,-,0.00,Rain,Light Rain,220,2012-01-31 03:55:00
8:04 PM,44.6,42.8,93,30.06,10.0,SW,5.8,-,N/A,,Overcast,220,2012-01-31 04:04:00
8:18 PM,42.8,42.8,100,30.06,10.0,SSW,4.6,-,N/A,Rain,Light Rain,200,2012-01-31 04:18:00
8:28 PM,42.8,42.8,100,30.06,10.0,SSW,5.8,-,N/A,,Mostly Cloudy,210,2012-01-31 04:28:00
8:55 PM,43.2,41.9,95,30.06,10.0,SSW,6.9,-,0.00,,Partly Cloudy,210,2012-01-31 04:55:00
9:12 PM,42.8,42.8,100,30.06,10.0,SSW,5.8,-,N/A,,Mostly Cloudy,210,2012-01-31 05:12:00
9:28 PM,44.6,42.8,93,30.05,10.0,SSW,4.6,-,N/A,,Overcast,210,2012-01-31 05:28:00
9:55 PM,44.1,42.3,93,30.04,10.0,South,8.1,-,N/A,,Overcast,190,2012-01-31 05:55:00
10:55 PM,43.7,41.4,91,30.05,10.0,SSW,5.8,-,N/A,,Overcast,210,2012-01-31 06:55:00
11:32 PM,42.8,41.0,93,30.06,10.0,SSW,3.5,-,N/A,,Overcast,200,2012-01-31 07:32:00
11:55 PM,43.0,40.6,91,30.06,10.0,South,3.5,-,N/A,,Overcast,190,2012-01-31 07:55:00